Stündliche Wetter Holovchytsi

Heute, 16 Juni, Mittwoch

Zeit Temperatur Niederschläge Wind Luftdruck Luftfeuchtigkeit
00:00 +15°C° 0 mm 2 m/S 742 mmHg 87%
01:00 +14°C° 0 mm 2 m/S 742 mmHg 89%
02:00 +14°C° 0 mm 2 m/S 742 mmHg 90%
03:00 +14°C° 0 mm 2 m/S 742 mmHg 91%
04:00 +14°C° 0 mm 2 m/S 742 mmHg 91%
05:00 +14°C° 0 mm 2 m/S 742 mmHg 92%
06:00 +16°C° 0 mm 2 m/S 742 mmHg 88%
07:00 +17°C° 0 mm 3 m/S 742 mmHg 84%
08:00 +19°C° 0 mm 3 m/S 743 mmHg 80%
09:00 +20°C° 0.1 mm 3 m/S 743 mmHg 76%
10:00 +21°C° 0.1 mm 3 m/S 743 mmHg 72%
11:00 +24°C° 0.1 mm 3 m/S 743 mmHg 67%
12:00 +23°C° 0.5 mm 4 m/S 743 mmHg 67%
13:00 +23°C° 0.5 mm 4 m/S 743 mmHg 67%
14:00 +23°C° 0.5 mm 4 m/S 743 mmHg 67%
15:00 +23°C° 0.3 mm 4 m/S 743 mmHg 68%
16:00 +23°C° 0.3 mm 4 m/S 743 mmHg 69%
17:00 +23°C° 0.3 mm 4 m/S 743 mmHg 71%
18:00 +22°C° 0.2 mm 4 m/S 743 mmHg 76%
19:00 +20°C° 0.2 mm 3 m/S 743 mmHg 80%
20:00 +18°C° 0.2 mm 3 m/S 743 mmHg 85%
21:00 +17°C° 0 mm 3 m/S 744 mmHg 86%
22:00 +16°C° 0 mm 3 m/S 744 mmHg 86%
23:00 +15°C° 0 mm 2 m/S 744 mmHg 87%

Morgen, 17 Juni, Donnerstag

Zeit Temperatur Niederschläge Wind Luftdruck Luftfeuchtigkeit
00:00 +14°C° 0 mm 2 m/S 744 mmHg 88%
01:00 +14°C° 0 mm 2 m/S 744 mmHg 89%
02:00 +13°C° 0 mm 2 m/S 744 mmHg 90%
03:00 +13°C° 0 mm 2 m/S 744 mmHg 90%
04:00 +13°C° 0 mm 2 m/S 745 mmHg 90%
05:00 +13°C° 0 mm 2 m/S 745 mmHg 90%
06:00 +15°C° 0 mm 2 m/S 745 mmHg 85%
07:00 +17°C° 0 mm 2 m/S 745 mmHg 81%
08:00 +19°C° 0 mm 2 m/S 746 mmHg 76%
09:00 +20°C° 0 mm 3 m/S 746 mmHg 73%
10:00 +22°C° 0 mm 3 m/S 746 mmHg 69%
11:00 +24°C° 0 mm 3 m/S 746 mmHg 66%
12:00 +25°C° 0 mm 3 m/S 746 mmHg 64%
13:00 +26°C° 0 mm 3 m/S 746 mmHg 61%
14:00 +26°C° 0 mm 3 m/S 746 mmHg 59%
15:00 +26°C° 0 mm 3 m/S 746 mmHg 61%
16:00 +27°C° 0 mm 3 m/S 746 mmHg 63%
17:00 +27°C° 0 mm 3 m/S 746 mmHg 65%
18:00 +25°C° 0.1 mm 3 m/S 746 mmHg 69%
19:00 +24°C° 0.1 mm 2 m/S 746 mmHg 74%
20:00 +21°C° 0.1 mm 2 m/S 746 mmHg 79%
21:00 +20°C° 0 mm 2 m/S 746 mmHg 82%
22:00 +19°C° 0 mm 2 m/S 746 mmHg 86%
23:00 +18°C° 0 mm 2 m/S 747 mmHg 89%

übermorgen, 18 Juni, Freitag

Zeit Temperatur Niederschläge Wind Luftdruck Luftfeuchtigkeit
00:00 +18°C° 0 mm 2 m/S 747 mmHg 90%
01:00 +17°C° 0 mm 2 m/S 747 mmHg 91%
02:00 +17°C° 0 mm 2 m/S 747 mmHg 92%
03:00 +16°C° 0 mm 2 m/S 747 mmHg 93%
04:00 +16°C° 0 mm 2 m/S 747 mmHg 94%
05:00 +16°C° 0 mm 2 m/S 747 mmHg 95%
06:00 +18°C° 0 mm 3 m/S 747 mmHg 89%
07:00 +19°C° 0 mm 3 m/S 747 mmHg 84%
08:00 +21°C° 0 mm 4 m/S 747 mmHg 79%
09:00 +22°C° 0 mm 4 m/S 747 mmHg 73%
10:00 +23°C° 0 mm 4 m/S 747 mmHg 68%
11:00 +25°C° 0 mm 4 m/S 747 mmHg 63%
12:00 +26°C° 0 mm 4 m/S 747 mmHg 62%
13:00 +26°C° 0 mm 4 m/S 747 mmHg 60%
14:00 +27°C° 0 mm 4 m/S 747 mmHg 59%
15:00 +27°C° 0 mm 4 m/S 746 mmHg 63%
16:00 +26°C° 0 mm 4 m/S 746 mmHg 66%
17:00 +26°C° 0 mm 4 m/S 746 mmHg 69%
18:00 +25°C° 0 mm 4 m/S 746 mmHg 75%
19:00 +22°C° 0 mm 3 m/S 746 mmHg 80%
20:00 +20°C° 0 mm 3 m/S 746 mmHg 85%
21:00 +20°C° 0 mm 3 m/S 746 mmHg 88%
22:00 +19°C° 0 mm 3 m/S 746 mmHg 91%
23:00 +18°C° 0 mm 2 m/S 747 mmHg 94%

19 Juni, Samstag

Zeit Temperatur Niederschläge Wind Luftdruck Luftfeuchtigkeit
00:00 +18°C° 0 mm 3 m/S 747 mmHg 94%
01:00 +18°C° 0 mm 3 m/S 746 mmHg 94%
02:00 +17°C° 0 mm 3 m/S 746 mmHg 95%
03:00 +17°C° 0 mm 3 m/S 746 mmHg 95%
04:00 +17°C° 0 mm 2 m/S 747 mmHg 96%
05:00 +17°C° 0 mm 2 m/S 747 mmHg 96%
06:00 +19°C° 0 mm 3 m/S 747 mmHg 91%
07:00 +20°C° 0 mm 4 m/S 747 mmHg 86%
08:00 +22°C° 0 mm 4 m/S 747 mmHg 82%
09:00 +23°C° 0 mm 5 m/S 747 mmHg 77%
10:00 +25°C° 0 mm 5 m/S 747 mmHg 72%
11:00 +26°C° 0 mm 5 m/S 746 mmHg 68%
12:00 +26°C° 0.1 mm 5 m/S 746 mmHg 65%
13:00 +27°C° 0.1 mm 5 m/S 746 mmHg 63%
14:00 +27°C° 0.1 mm 5 m/S 746 mmHg 60%
15:00 +26°C° 0.4 mm 5 m/S 746 mmHg 66%
16:00 +26°C° 0.4 mm 5 m/S 746 mmHg 72%
17:00 +25°C° 0.4 mm 5 m/S 746 mmHg 78%
18:00 +23°C° 0.4 mm 4 m/S 746 mmHg 82%
19:00 +21°C° 0.4 mm 3 m/S 746 mmHg 87%
20:00 +20°C° 0.4 mm 2 m/S 746 mmHg 91%
21:00 +19°C° 0 mm 2 m/S 746 mmHg 92%
22:00 +19°C° 0 mm 2 m/S 746 mmHg 93%
23:00 +18°C° 0 mm 2 m/S 746 mmHg 94%

20 Juni, Sonntag

Zeit Temperatur Niederschläge Wind Luftdruck Luftfeuchtigkeit
00:00 +18°C° 0 mm 2 m/S 746 mmHg 94%
01:00 +17°C° 0 mm 2 m/S 746 mmHg 94%
02:00 +17°C° 0 mm 2 m/S 746 mmHg 95%
03:00 +17°C° 0 mm 2 m/S 746 mmHg 95%
04:00 +17°C° 0 mm 2 m/S 746 mmHg 95%
05:00 +17°C° 0 mm 2 m/S 746 mmHg 95%
06:00 +18°C° 0 mm 3 m/S 746 mmHg 91%
07:00 +20°C° 0 mm 3 m/S 746 mmHg 87%
08:00 +21°C° 0 mm 4 m/S 746 mmHg 83%
09:00 +23°C° 0 mm 4 m/S 746 mmHg 78%
10:00 +25°C° 0 mm 4 m/S 746 mmHg 72%
11:00 +26°C° 0 mm 5 m/S 745 mmHg 67%
12:00 +26°C° 0.4 mm 5 m/S 745 mmHg 66%
13:00 +27°C° 0.4 mm 5 m/S 745 mmHg 65%
14:00 +27°C° 0.4 mm 4 m/S 745 mmHg 63%
15:00 +27°C° 0 mm 4 m/S 745 mmHg 65%
16:00 +27°C° 0 mm 4 m/S 744 mmHg 66%
17:00 +27°C° 0 mm 4 m/S 744 mmHg 67%
18:00 +26°C° 0.1 mm 4 m/S 744 mmHg 74%
19:00 +24°C° 0.1 mm 3 m/S 744 mmHg 80%
20:00 +22°C° 0.1 mm 3 m/S 744 mmHg 86%
21:00 +21°C° 0 mm 3 m/S 744 mmHg 88%
22:00 +20°C° 0 mm 3 m/S 744 mmHg 90%
23:00 +19°C° 0 mm 3 m/S 744 mmHg 93%

21 Juni, Montag

Zeit Temperatur Niederschläge Wind Luftdruck Luftfeuchtigkeit
00:00 +19°C° 0 mm 3 m/S 744 mmHg 93%
01:00 +18°C° 0 mm 2 m/S 744 mmHg 94%
02:00 +18°C° 0 mm 2 m/S 744 mmHg 94%
03:00 +18°C° 0 mm 2 m/S 744 mmHg 94%
04:00 +17°C° 0 mm 2 m/S 743 mmHg 94%
05:00 +17°C° 0 mm 2 m/S 743 mmHg 94%
06:00 +19°C° 0 mm 3 m/S 743 mmHg 89%
07:00 +20°C° 0 mm 3 m/S 743 mmHg 84%
08:00 +21°C° 0 mm 4 m/S 743 mmHg 78%
09:00 +23°C° 0 mm 4 m/S 743 mmHg 73%
10:00 +25°C° 0 mm 4 m/S 743 mmHg 68%
11:00 +26°C° 0 mm 4 m/S 743 mmHg 63%
12:00 +27°C° 0 mm 4 m/S 742 mmHg 62%
13:00 +27°C° 0 mm 4 m/S 742 mmHg 61%
14:00 +28°C° 0 mm 4 m/S 742 mmHg 60%
15:00 +28°C° 0.1 mm 4 m/S 741 mmHg 63%
16:00 +27°C° 0.1 mm 4 m/S 741 mmHg 66%
17:00 +27°C° 0.1 mm 4 m/S 741 mmHg 69%
18:00 +26°C° 0.3 mm 4 m/S 741 mmHg 74%
19:00 +25°C° 0.3 mm 3 m/S 741 mmHg 78%
20:00 +23°C° 0.3 mm 2 m/S 740 mmHg 83%
21:00 +21°C° 0 mm 2 m/S 740 mmHg 86%
22:00 +21°C° 0 mm 3 m/S 740 mmHg 89%
23:00 +20°C° 0 mm 3 m/S 740 mmHg 92%
Mehr zeigen

Wir brauchen deine Erlaubnis

Meteoprog und unser Service Anbieter werden persönliche Daten aufbewahren, so wie Cookies, Geräte Bezeichnung oder ähnliche Technologien von deinem Gerät und Prozess, so wie Persönliche Daten Inhalte und Werbungen, genauso wie social Media und den Verkehr zu analysieren.

  • Aufbewahrung und/oder Zugang zu deiner Geräte Informationen.

    Cookies, Geräte Bezeichnung oder andere Informationen, können aufbewahrt oder Zugang zu deinem Gerät erhalten, für den Grund, der oben angegeben wird.

  • Personalisierte Werbung und Inhalte, Messungen, Einblick in das Publikum und Produkt Entwicklung.

    Werbungen und Inhalte können personalisiert werden, basierend auf ein Profil. Mehr Daten können besser personalisierte Werbungen und Inhalte hinzufügen. Werbung und Inhalte können gezeigt und gemessen werden. Einblicke über das Publikum, welche die Werbung gesehen haben und den Inhalt, können abgeleitet werden. So wie Daten können genutzt werden, um es zu verbessern oder die Benutzer Erfahrung zu verbessern das System und die Software.

Wenn du “Ich stimme zu” klickst, erlaubst du uns, die Cookies zu benutzen die Geräte Bezeichnung, den Web oder ähnliche Technologien zu benutzen. Deine Settings, können in deinem Gerät bei deinem Browser geändert werden.

Für den bestimmten Zweck, berechtigten Interessen beruhen darauf, mehr als auf den Inhalt. Du kannst mehr darüber in unseren Privaten und Cookie Politik lesen.